Location: Spring Creek
(38.2870°N, 100.2160°W)
Time: 23:43:30
(UTC+00:00)

Cosmos 2297 Rocket - Pass Details

Date: 30 September 2021
Orbit: 841 x 842 km, 71.0° (Epoch: 18 October)

Event Time Altitude Azimuth Distance (km) Brightness Sun altitude
Rises 02:38:23 0° 348° (NNW) 3,403 5.8 -26.4°
Reaches altitude 10° 02:41:15 10° 1° (N) 2,465 4.8 -26.9°
Enters shadow 02:43:52 21° 25° (NNE) 1,802 3.8 -27.4°
